Time,TemperatureF,DewpointF,PressureIn,WindDirection,WindDirectionDegrees,WindSpeedMPH,WindSpeedGustMPH,Humidity,HourlyPrecipIn,Conditions,Clouds,dailyrainin,SoftwareType,DateUTC
2013-03-12 00:02:00,44.2,13.9,30.20,South,179,0.0,0.0,29,0.00,,,0.00,Wunderground v.1.15,2013-03-12 06:02:00,
2013-03-12 00:08:00,44.2,13.9,30.19,South,179,0.0,0.0,29,0.00,,,0.00,Wunderground v.1.15,2013-03-12 06:08:00,
2013-03-12 00:13:00,43.9,14.4,30.19,South,179,0.0,0.0,30,0.00,,,0.00,Wunderground v.1.15,2013-03-12 06:13:00,
2013-03-12 00:19:00,43.4,14.0,30.19,South,179,0.0,0.0,30,0.00,,,0.00,Wunderground v.1.15,2013-03-12 06:19:00,
2013-03-12 00:24:00,43.2,13.8,30.19,South,179,0.0,0.0,30,0.00,,,0.00,Wunderground v.1.15,2013-03-12 06:24:00,
2013-03-12 00:30:00,43.7,15.7,30.19,South,179,0.0,0.0,32,0.00,,,0.00,Wunderground v.1.15,2013-03-12 06:30:00,
2013-03-12 00:35:00,43.5,14.8,30.19,South,179,0.0,0.0,31,0.00,,,0.00,Wunderground v.1.15,2013-03-12 06:35:00,
2013-03-12 00:40:00,43.0,16.5,30.20,South,179,0.0,0.0,34,0.00,,,0.00,Wunderground v.1.15,2013-03-12 06:40:00,
2013-03-12 00:46:00,42.4,16.6,30.19,South,179,0.0,0.0,35,0.00,,,0.00,Wunderground v.1.15,2013-03-12 06:46:00,
2013-03-12 00:52:00,41.7,17.9,30.19,South,179,0.0,0.0,38,0.00,,,0.00,Wunderground v.1.15,2013-03-12 06:52:00,
2013-03-12 00:58:00,41.3,16.9,30.20,South,179,0.0,0.0,37,0.00,,,0.00,Wunderground v.1.15,2013-03-12 06:58:00,
2013-03-12 01:04:00,40.9,17.2,30.20,South,179,0.0,0.0,38,0.00,,,0.00,Wunderground v.1.15,2013-03-12 07:04:00,
2013-03-12 01:10:00,40.5,16.2,30.20,South,179,0.0,0.0,37,0.00,,,0.00,Wunderground v.1.15,2013-03-12 07:10:00,
2013-03-12 01:16:00,40.6,16.9,30.20,South,179,0.0,0.0,38,0.00,,,0.00,Wunderground v.1.15,2013-03-12 07:16:00,
2013-03-12 01:21:00,40.8,16.5,30.19,South,179,0.0,0.0,37,0.00,,,0.00,Wunderground v.1.15,2013-03-12 07:21:00,
2013-03-12 01:27:00,40.8,17.1,30.20,South,179,0.0,0.0,38,0.00,,,0.00,Wunderground v.1.15,2013-03-12 07:27:00,
2013-03-12 01:33:00,40.8,17.1,30.20,South,179,0.0,0.0,38,0.00,,,0.00,Wunderground v.1.15,2013-03-12 07:33:00,
2013-03-12 01:38:00,40.9,17.8,30.20,South,179,0.0,0.0,39,0.00,,,0.00,Wunderground v.1.15,2013-03-12 07:38:00,
2013-03-12 01:44:00,41.0,18.5,30.20,South,179,0.0,0.0,40,0.00,,,0.00,Wunderground v.1.15,2013-03-12 07:44:00,
2013-03-12 01:50:00,41.2,17.5,30.20,South,179,0.0,0.0,38,0.00,,,0.00,Wunderground v.1.15,2013-03-12 07:50:00,
2013-03-12 01:56:00,40.4,16.8,30.20,South,179,0.0,0.0,38,0.00,,,0.00,Wunderground v.1.15,2013-03-12 07:56:00,
2013-03-12 02:01:00,40.0,14.5,30.20,South,179,0.0,0.0,35,0.00,,,0.00,Wunderground v.1.15,2013-03-12 08:01:00,
2013-03-12 02:07:00,38.9,15.4,30.20,South,179,0.0,0.0,38,0.00,,,0.00,Wunderground v.1.15,2013-03-12 08:07:00,
2013-03-12 02:12:00,38.5,15.7,30.20,South,179,0.0,0.0,39,0.00,,,0.00,Wunderground v.1.15,2013-03-12 08:12:00,
2013-03-12 02:18:00,38.3,16.1,30.20,South,179,0.0,0.0,40,0.00,,,0.00,Wunderground v.1.15,2013-03-12 08:18:00,
2013-03-12 02:24:00,38.7,15.8,30.20,South,179,0.0,0.0,39,0.00,,,0.00,Wunderground v.1.15,2013-03-12 08:24:00,
2013-03-12 02:30:00,39.2,16.3,30.20,South,179,0.0,0.0,39,0.00,,,0.00,Wunderground v.1.15,2013-03-12 08:30:00,
2013-03-12 02:36:00,39.4,15.3,30.20,South,179,0.0,0.0,37,0.00,,,0.00,Wunderground v.1.15,2013-03-12 08:36:00,
2013-03-12 02:42:00,39.3,15.2,30.20,South,179,0.0,0.0,37,0.00,,,0.00,Wunderground v.1.15,2013-03-12 08:42:00,
2013-03-12 02:47:00,39.7,14.9,30.20,South,179,0.0,0.0,36,0.00,,,0.00,Wunderground v.1.15,2013-03-12 08:47:00,
2013-03-12 02:53:00,40.0,14.5,30.20,South,179,0.0,0.0,35,0.00,,,0.00,Wunderground v.1.15,2013-03-12 08:53:00,
2013-03-12 02:59:00,39.7,14.2,30.20,South,179,0.0,0.0,35,0.00,,,0.00,Wunderground v.1.15,2013-03-12 08:59:00,
2013-03-12 03:04:00,39.4,14.6,30.20,South,179,0.0,0.0,36,0.00,,,0.00,Wunderground v.1.15,2013-03-12 09:04:00,
2013-03-12 03:10:00,39.1,14.4,30.20,South,179,0.0,0.0,36,0.00,,,0.00,Wunderground v.1.15,2013-03-12 09:10:00,
2013-03-12 03:15:00,38.8,14.1,30.20,South,179,0.0,0.0,36,0.00,,,0.00,Wunderground v.1.15,2013-03-12 09:15:00,
2013-03-12 03:21:00,38.3,14.3,30.20,South,179,0.0,0.0,37,0.00,,,0.00,Wunderground v.1.15,2013-03-12 09:21:00,
2013-03-12 03:26:00,38.0,14.0,30.19,South,179,0.0,0.0,37,0.00,,,0.00,Wunderground v.1.15,2013-03-12 09:26:00,
2013-03-12 03:31:00,37.8,14.4,30.19,South,179,0.0,0.0,38,0.00,,,0.00,Wunderground v.1.15,2013-03-12 09:31:00,
2013-03-12 03:37:00,37.4,14.1,30.20,South,179,0.0,0.0,38,0.00,,,0.00,Wunderground v.1.15,2013-03-12 09:37:00,
2013-03-12 03:42:00,37.1,14.4,30.20,South,179,0.0,0.0,39,0.00,,,0.00,Wunderground v.1.15,2013-03-12 09:42:00,
2013-03-12 03:48:00,36.7,14.0,30.19,South,179,0.0,0.0,39,0.00,,,0.00,Wunderground v.1.15,2013-03-12 09:48:00,
2013-03-12 03:54:00,36.3,13.7,30.19,South,179,0.0,0.0,39,0.00,,,0.00,Wunderground v.1.15,2013-03-12 09:54:00,
2013-03-12 04:00:00,36.2,14.7,30.19,South,179,0.0,0.0,41,0.00,,,0.00,Wunderground v.1.15,2013-03-12 10:00:00,
2013-03-12 04:05:00,36.2,14.7,30.19,South,179,0.0,0.0,41,0.00,,,0.00,Wunderground v.1.15,2013-03-12 10:05:00,
2013-03-12 04:11:00,36.1,15.7,30.20,South,179,0.0,0.0,43,0.00,,,0.00,Wunderground v.1.15,2013-03-12 10:11:00,
2013-03-12 04:16:00,36.0,16.7,30.19,South,179,0.0,0.0,45,0.00,,,0.00,Wunderground v.1.15,2013-03-12 10:16:00,
2013-03-12 04:22:00,35.9,16.6,30.19,South,179,0.0,0.0,45,0.00,,,0.00,Wunderground v.1.15,2013-03-12 10:22:00,
2013-03-12 04:28:00,35.7,16.9,30.20,South,179,0.0,0.0,46,0.00,,,0.00,Wunderground v.1.15,2013-03-12 10:28:00,
2013-03-12 04:33:00,35.6,16.8,30.20,South,179,0.0,0.0,46,0.00,,,0.00,Wunderground v.1.15,2013-03-12 10:33:00,
2013-03-12 04:39:00,35.4,16.1,30.20,South,179,0.0,0.0,45,0.00,,,0.00,Wunderground v.1.15,2013-03-12 10:39:00,
2013-03-12 04:45:00,35.0,17.3,30.20,South,179,0.0,0.0,48,0.00,,,0.00,Wunderground v.1.15,2013-03-12 10:45:00,
2013-03-12 04:50:00,34.7,17.0,30.20,South,179,0.0,0.0,48,0.00,,,0.00,Wunderground v.1.15,2013-03-12 10:50:00,
2013-03-12 04:56:00,34.4,17.2,30.20,South,179,0.0,0.0,49,0.00,,,0.00,Wunderground v.1.15,2013-03-12 10:56:00,
2013-03-12 05:01:00,33.9,15.3,30.20,South,179,0.0,0.0,46,0.00,,,0.00,Wunderground v.1.15,2013-03-12 11:01:00,
2013-03-12 05:06:00,33.4,15.3,30.20,South,179,0.0,0.0,47,0.00,,,0.00,Wunderground v.1.15,2013-03-12 11:06:00,
2013-03-12 05:12:00,33.2,17.9,30.20,South,179,0.0,0.0,53,0.00,,,0.00,Wunderground v.1.15,2013-03-12 11:12:00,
2013-03-12 05:18:00,33.0,17.3,30.21,South,179,0.0,0.0,52,0.00,,,0.00,Wunderground v.1.15,2013-03-12 11:18:00,
2013-03-12 05:23:00,32.9,17.2,30.21,South,179,0.0,0.0,52,0.00,,,0.00,Wunderground v.1.15,2013-03-12 11:23:00,
2013-03-12 05:29:00,32.6,16.4,30.21,South,179,0.0,0.0,51,0.00,,,0.00,Wunderground v.1.15,2013-03-12 11:29:00,
2013-03-12 05:35:00,32.3,16.2,30.21,South,179,0.0,0.0,51,0.00,,,0.00,Wunderground v.1.15,2013-03-12 11:35:00,
2013-03-12 05:40:00,32.2,16.5,30.21,South,179,0.0,0.0,52,0.00,,,0.00,Wunderground v.1.15,2013-03-12 11:40:00,
2013-03-12 05:46:00,32.0,15.9,30.21,South,179,0.0,0.0,51,0.00,,,0.00,Wunderground v.1.15,2013-03-12 11:46:00,
2013-03-12 05:52:00,32.0,15.9,30.21,South,179,0.0,0.0,51,0.00,,,0.00,Wunderground v.1.15,2013-03-12 11:52:00,
2013-03-12 05:58:00,32.0,16.3,30.21,South,179,0.0,0.0,52,0.00,,,0.00,Wunderground v.1.15,2013-03-12 11:58:00,
2013-03-12 06:04:00,32.2,17.8,30.21,South,179,0.0,0.0,55,0.00,,,0.00,Wunderground v.1.15,2013-03-12 12:04:00,
2013-03-12 06:10:00,32.2,16.5,30.21,South,179,0.0,0.0,52,0.00,,,0.00,Wunderground v.1.15,2013-03-12 12:10:00,
2013-03-12 06:15:00,32.4,16.3,30.22,South,179,0.0,0.0,51,0.00,,,0.00,Wunderground v.1.15,2013-03-12 12:15:00,
2013-03-12 06:21:00,32.4,15.3,30.22,South,179,0.0,0.0,49,0.00,,,0.00,Wunderground v.1.15,2013-03-12 12:21:00,
2013-03-12 06:26:00,32.4,15.3,30.21,South,179,0.0,0.0,49,0.00,,,0.00,Wunderground v.1.15,2013-03-12 12:26:00,
2013-03-12 06:31:00,32.4,15.3,30.22,South,179,0.0,0.0,49,0.00,,,0.00,Wunderground v.1.15,2013-03-12 12:31:00,
2013-03-12 06:37:00,32.3,15.7,30.22,South,179,0.0,0.0,50,0.00,,,0.00,Wunderground v.1.15,2013-03-12 12:37:00,
2013-03-12 06:42:00,31.9,15.3,30.22,South,179,0.0,0.0,50,0.00,,,0.00,Wunderground v.1.15,2013-03-12 12:42:00,
2013-03-12 06:48:00,31.5,14.5,30.22,South,179,0.0,0.0,49,0.00,,,0.00,Wunderground v.1.15,2013-03-12 12:48:00,
2013-03-12 06:54:00,30.8,13.9,30.22,South,179,0.0,0.0,49,0.00,,,0.00,Wunderground v.1.15,2013-03-12 12:54:00,
2013-03-12 07:00:00,30.3,16.5,30.23,South,179,0.0,0.0,56,0.00,,,0.00,Wunderground v.1.15,2013-03-12 13:00:00,
2013-03-12 07:05:00,30.3,18.1,30.22,South,179,0.0,0.0,60,0.00,,,0.00,Wunderground v.1.15,2013-03-12 13:05:00,
2013-03-12 07:11:00,30.6,18.0,30.23,South,179,0.0,0.0,59,0.00,,,0.00,Wunderground v.1.15,2013-03-12 13:11:00,
2013-03-12 07:17:00,30.7,17.3,30.23,South,179,0.0,0.0,57,0.00,,,0.00,Wunderground v.1.15,2013-03-12 13:17:00,
2013-03-12 07:23:00,30.6,16.7,30.24,South,179,0.0,0.0,56,0.00,,,0.00,Wunderground v.1.15,2013-03-12 13:23:00,
2013-03-12 07:29:00,30.6,17.6,30.23,South,179,0.0,0.0,58,0.00,,,0.00,Wunderground v.1.15,2013-03-12 13:29:00,
2013-03-12 07:34:00,30.6,17.6,30.24,South,179,0.0,0.0,58,0.00,,,0.00,Wunderground v.1.15,2013-03-12 13:34:00,
2013-03-12 07:40:00,30.9,17.8,30.24,South,179,0.0,0.0,58,0.00,,,0.00,Wunderground v.1.15,2013-03-12 13:40:00,
2013-03-12 07:45:00,31.4,17.5,30.24,South,179,0.0,0.0,56,0.00,,,0.00,Wunderground v.1.15,2013-03-12 13:45:00,
2013-03-12 07:51:00,31.9,18.0,30.25,South,179,0.0,0.0,56,0.00,,,0.00,Wunderground v.1.15,2013-03-12 13:51:00,
2013-03-12 07:57:00,32.8,17.1,30.25,South,179,0.0,0.0,52,0.00,,,0.00,Wunderground v.1.15,2013-03-12 13:57:00,
2013-03-12 08:02:00,33.7,17.5,30.25,South,179,0.0,0.0,51,0.00,,,0.00,Wunderground v.1.15,2013-03-12 14:02:00,
2013-03-12 08:08:00,34.7,17.5,30.25,South,179,0.0,0.0,49,0.00,,,0.00,Wunderground v.1.15,2013-03-12 14:08:00,
2013-03-12 08:14:00,36.0,17.2,30.25,South,179,0.0,0.0,46,0.00,,,0.00,Wunderground v.1.15,2013-03-12 14:14:00,
2013-03-12 08:20:00,37.1,17.2,30.26,South,179,0.0,0.0,44,0.00,,,0.00,Wunderground v.1.15,2013-03-12 14:20:00,
2013-03-12 08:26:00,37.7,17.7,30.26,South,179,0.0,0.0,44,0.00,,,0.00,Wunderground v.1.15,2013-03-12 14:26:00,
2013-03-12 08:31:00,38.7,17.0,30.26,South,179,0.0,0.0,41,0.00,,,0.00,Wunderground v.1.15,2013-03-12 14:31:00,
2013-03-12 08:36:00,39.7,16.7,30.26,South,179,0.0,0.0,39,0.00,,,0.00,Wunderground v.1.15,2013-03-12 14:36:00,
2013-03-12 08:42:00,40.8,16.5,30.27,South,179,0.0,0.0,37,0.00,,,0.00,Wunderground v.1.15,2013-03-12 14:42:00,
2013-03-12 08:47:00,41.7,16.7,30.27,South,179,0.0,0.0,36,0.00,,,0.00,Wunderground v.1.15,2013-03-12 14:47:00,
2013-03-12 08:52:00,42.1,16.4,30.27,South,179,0.0,0.0,35,0.00,,,0.00,Wunderground v.1.15,2013-03-12 14:52:00,
2013-03-12 08:58:00,42.3,17.2,30.28,South,179,0.0,0.0,36,0.00,,,0.00,Wunderground v.1.15,2013-03-12 14:58:00,
2013-03-12 09:04:00,42.6,19.3,30.28,South,179,0.0,0.0,39,0.00,,,0.00,Wunderground v.1.15,2013-03-12 15:04:00,
2013-03-12 09:09:00,43.1,19.2,30.28,South,179,0.0,0.0,38,0.00,,,0.00,Wunderground v.1.15,2013-03-12 15:09:00,
2013-03-12 09:14:00,43.9,19.3,30.28,South,179,0.0,0.0,37,0.00,,,0.00,Wunderground v.1.15,2013-03-12 15:14:00,
2013-03-12 09:19:00,45.0,19.0,30.29,South,179,0.0,0.0,35,0.00,,,0.00,Wunderground v.1.15,2013-03-12 15:19:00,
2013-03-12 09:25:00,46.5,19.6,30.28,South,179,0.0,0.0,34,0.00,,,0.00,Wunderground v.1.15,2013-03-12 15:25:00,
2013-03-12 09:30:00,47.9,19.4,30.28,South,179,0.0,0.0,32,0.00,,,0.00,Wunderground v.1.15,2013-03-12 15:30:00,
2013-03-12 09:35:00,49.5,19.3,30.29,South,179,0.0,0.0,30,0.00,,,0.00,Wunderground v.1.15,2013-03-12 15:35:00,
2013-03-12 09:41:00,50.8,18.8,30.28,South,179,0.0,0.0,28,0.00,,,0.00,Wunderground v.1.15,2013-03-12 15:41:00,
2013-03-12 09:47:00,51.5,18.6,30.29,South,180,0.0,0.0,27,0.00,,,0.00,Wunderground v.1.15,2013-03-12 15:47:00,
2013-03-12 09:52:00,51.9,18.9,30.29,South,180,0.0,0.0,27,0.00,,,0.00,Wunderground v.1.15,2013-03-12 15:52:00,
2013-03-12 09:58:00,51.9,18.9,30.29,SSW,207,0.0,0.0,27,0.00,,,0.00,Wunderground v.1.15,2013-03-12 15:58:00,
2013-03-12 10:04:00,52.6,18.6,30.29,WSW,247,0.0,1.0,26,0.00,,,0.00,Wunderground v.1.15,2013-03-12 16:04:00,
2013-03-12 10:10:00,53.5,19.4,30.29,NW,308,0.0,1.0,26,0.00,,,0.00,Wunderground v.1.15,2013-03-12 16:10:00,
2013-03-12 10:16:00,54.1,20.8,30.29,NW,318,1.0,2.0,27,0.00,,,0.00,Wunderground v.1.15,2013-03-12 16:16:00,
2013-03-12 10:22:00,54.7,20.4,30.30,NW,320,1.0,1.0,26,0.00,,,0.00,Wunderground v.1.15,2013-03-12 16:22:00,
2013-03-12 10:27:00,55.3,19.1,30.30,North,355,1.0,3.0,24,0.00,,,0.00,Wunderground v.1.15,2013-03-12 16:27:00,
2013-03-12 10:32:00,56.2,19.8,30.30,North,355,0.0,0.0,24,0.00,,,0.00,Wunderground v.1.15,2013-03-12 16:32:00,
2013-03-12 10:38:00,57.3,19.8,30.29,North,355,0.0,0.0,23,0.00,,,0.00,Wunderground v.1.15,2013-03-12 16:38:00,
2013-03-12 10:43:00,57.9,19.2,30.29,North,5,0.0,2.0,22,0.00,,,0.00,Wunderground v.1.15,2013-03-12 16:43:00,
2013-03-12 10:49:00,58.6,19.8,30.30,North,5,0.0,2.0,22,0.00,,,0.00,Wunderground v.1.15,2013-03-12 16:49:00,
2013-03-12 10:54:00,59.1,19.1,30.29,NE,34,0.0,3.0,21,0.00,,,0.00,Wunderground v.1.15,2013-03-12 16:54:00,
2013-03-12 10:59:00,59.3,19.3,30.29,NE,47,0.0,4.0,21,0.00,,,0.00,Wunderground v.1.15,2013-03-12 16:59:00,
2013-03-12 11:05:00,59.2,19.2,30.30,ENE,69,1.0,4.0,21,0.00,,,0.00,Wunderground v.1.15,2013-03-12 17:05:00,
2013-03-12 11:10:00,59.3,19.3,30.30,ENE,69,1.0,1.0,21,0.00,,,0.00,Wunderground v.1.15,2013-03-12 17:10:00,
2013-03-12 11:16:00,59.4,19.4,30.30,ENE,75,0.0,4.0,21,0.00,,,0.00,Wunderground v.1.15,2013-03-12 17:16:00,
2013-03-12 11:22:00,59.5,19.5,30.30,ENE,77,1.0,1.0,21,0.00,,,0.00,Wunderground v.1.15,2013-03-12 17:22:00,
2013-03-12 11:27:00,59.5,19.5,30.30,ESE,112,2.0,5.0,21,0.00,,,0.00,Wunderground v.1.15,2013-03-12 17:27:00,
2013-03-12 11:33:00,59.6,19.6,30.30,SE,140,3.0,4.0,21,0.00,,,0.00,Wunderground v.1.15,2013-03-12 17:33:00,
2013-03-12 11:39:00,60.4,20.2,30.30,SE,140,2.0,4.0,21,0.00,,,0.00,Wunderground v.1.15,2013-03-12 17:39:00,
2013-03-12 11:45:00,61.1,20.8,30.30,SSE,161,2.0,5.0,21,0.00,,,0.00,Wunderground v.1.15,2013-03-12 17:45:00,
2013-03-12 11:50:00,61.6,20.1,30.30,SSE,161,2.0,2.0,20,0.00,,,0.00,Wunderground v.1.15,2013-03-12 17:50:00,
2013-03-12 11:56:00,62.3,20.7,30.29,South,184,4.0,6.0,20,0.00,,,0.00,Wunderground v.1.15,2013-03-12 17:56:00,
2013-03-12 12:01:00,62.7,22.2,30.29,South,182,4.0,7.0,21,0.00,,,0.00,Wunderground v.1.15,2013-03-12 18:01:00,